{"data":{"norad_id":64470,"intl_designator":"2025-132A","name":"CHINASAT 9C","alt_names":[],"object_type":"PAYLOAD","status":"ACTIVE","operator":null,"country":"PRC","launch_date":"2025-06-20","launch_site_code":"XICLF","launch_vehicle":null,"mission":null,"orbit_class":"UNKNOWN","rcs_meters":null,"size_class":null,"mass_kg":null,"dimensions":null,"purposes":["comms"],"wikipedia_slug":null,"has_3d_model":false,"image_url":null,"decayed_at":null,"tle_current":{"epoch":"2026-09-19T22:32:26.774592Z","epoch_age_seconds":70466,"freshness":"FRESH","line1":"1 64470U 25132A   26262.93919878 -.00000252  00000+0  00000+0 0  9994","line2":"2 64470   0.0157 135.6154 0003011  34.3093 259.2477  1.00271391  5092","mean_motion":1.00271391,"eccentricity":0.0003011,"inclination_deg":0.0157,"raan_deg":135.6154,"arg_perigee_deg":34.3093,"mean_anomaly_deg":259.2477,"bstar":0,"rev_number":509,"period_min":1436.1025469368,"perigee_km":35774.009580004,"apogee_km":35799.401248106,"semimajor_km":42164.842414055,"source":"CELESTRAK","updated_at":"2026-09-20T09:00:35.345134Z"}}}